SCP
0 0 0 0 0 0 0 0 0 1 1 1 1 1 2 2 3 3 5 5 5 4 5 5 5 5 4 3 4 5 5 4 3 3 2 2 1 1 1 1 1 1 1 1
0 0 0 0 0 0 0 0 0 1 1 1 1 1 2 2 3 4 4 5 4 4 4 5 5 4 4 3 4 4 4 3 3 2 2 1 1 1 1 1 1 1 1 1
0 0 0 0 0 0 0 0 0 0 1 1 1 1 1 2 3 4 5 5 5 4 4 4 4 4 4 4 4 4 3 3 3 3 2 2 1 1 1 1 1 0 0 0
0 0 0 0 0 0 0 0 0 0 0 0 1 1 1 2 4 5 7 7 6 5 4 4 4 4 4 4 4 4 4 3 3 3 3 2 2 2 1 1 1 0 0 0
0 0 0 0 0 0 0 0 0 0 0 0 0 0 1 2 3 5 7 8 7 5 4 4 4 5 5 5 4 4 4 4 4 4 3 3 2 2 1 1 1 1 0 0
0 0 0 0 0 0 0 0 0 0 0 0 0 0 1 1 2 3 5 6 6 5 5 5 5 5 6 6 4 4 4 3 4 4 3 3 2 2 1 1 1 1 1 0
0 0 0 0 0 0 0 0 0 0 0 0 0 0 0 1 2 3 5 6 5 6 7 7 5 6 6 6 4 4 4 3 3 3 3 2 2 2 1 1 1 1 1 0
0 0 0 0 0 0 0 0 0 0 0 0 0 0 1 2 3 5 6 6 6 7 8 7 6 6 6 5 4 4 4 3 3 3 2 2 2 2 1 1 1 1 1 1
0 0 0 0 0 0 0 0 0 0 0 0 0 0 1 3 5 6 7 6 5 6 6 6 5 4 4 4 4 4 3 3 2 2 2 2 2 1 1 1 1 1 1 1
0 0 0 0 0 0 0 0 0 0 0 0 0 0 1 3 5 6 5 5 4 4 5 4 4 3 3 3 3 2 2 2 2 2 2 2 2 1 1 1 1 1 1 1
0 0 0 0 0 0 0 0 0 0 0 0 0 0 1 2 3 4 4 4 4 5 5 5 4 3 2 2 2 2 2 2 2 2 2 2 2 1 1 1 1 1 1 1
0 0 0 0 0 0 0 0 0 0 0 0 0 0 1 2 4 5 5 4 5 6 6 5 5 3 2 2 3 3 2 2 1 2 2 2 1 1 1 1 1 1 1 1
0 0 0 0 0 0 0 0 0 0 0 0 0 0 1 3 5 6 6 5 6 6 5 5 4 4 3 3 3 4 3 2 1 1 1 1 1 1 1 1 1 1 1 1
0 0 0 0 0 0 0 0 0 0 0 0 0 1 2 3 5 5 5 4 5 5 5 4 4 3 3 3 4 4 3 2 2 1 1 1 1 1 1 1 1 1 1 1
0 0 0 0 0 0 0 0 0 0 0 0 1 1 2 3 4 4 4 4 5 5 5 5 4 4 4 4 4 3 3 2 2 1 1 1 1 1 1 1 1 1 1 1
0 0 0 0 0 0 0 1 1 0 0 1 1 2 2 4 5 4 5 5 5 5 6 6 6 5 4 4 4 3 3 2 2 1 1 1 2 2 2 2 2 2 1 1
0 0 0 0 0 0 0 1 1 1 1 1 2 3 5 7 8 6 6 6 6 7 8 9 9 7 5 4 4 4 3 3 2 2 2 2 2 2 2 2 2 2 1 1
0 0 0 0 0 0 1 1 2 2 2 3 3 5 8 10 11 10 8 7 8 10 13 14 12 8 6 5 5 5 4 4 3 3 3 3 3 2 2 2 2 1 1 1
0 0 0 0 0 0 1 1 2 2 3 4 5 7 9 10 11 11 10 10 12 16 18 17 13 8 6 5 5 6 5 5 4 3 3 3 2 2 1 1 1 1 0 0
0 0 0 0 0 1 1 2 2 2 3 4 5 7 8 9 9 10 11 14 17 19 20 16 11 7 5 5 5 6 6 6 5 4 3 2 2 1 1 1 1 0 0 0
0 0 0 0 1 1 2 2 2 2 4 6 7 7 8 8 8 9 12 15 17 17 16 12 8 6 4 4 5 5 6 6 5 4 2 2 1 1 0 0 0 0 0 0
0 0 0 0 1 1 2 2 2 3 6 8 10 10 10 10 10 10 12 12 12 11 9 7 5 4 3 4 4 5 5 5 4 3 2 1 1 0 0 0 0 0 0 0
0 1 1 1 2 2 3 3 3 5 8 10 10 9 10 10 10 11 11 10 8 7 6 5 4 4 4 3 4 4 3 3 3 2 2 1 0 0 0 0 0 0 0 0
1 1 2 3 3 4 5 5 5 7 8 8 7 7 8 9 9 9 9 9 8 7 7 6 6 5 4 3 3 2 2 2 2 1 1 0 0 0 0 0 0 0 0 0
2 2 3 4 5 5 5 6 7 7 8 7 6 6 7 7 7 7 7 7 7 7 7 7 6 5 3 2 2 1 1 1 1 1 0 0 0 0 0 0 0 0 0 0
2 2 3 5 5 5 5 5 6 7 7 7 6 6 6 6 6 6 6 6 6 6 6 5 5 3 2 1 1 1 1 1 1 1 1 0 0 0 0 0 0 0 0 0
Wind_Speed
1 3 3 7 5 6 3 2 2 3 3 6 7 8 10 10 10 10 9 8 9 9 8 8 9 10 9 8 8 7 7 6 4 3 2 2 1 1 1 2 4 4 4 4
4 4 9 7 5 3 3 2 3 2 1 4 5 4 7 8 10 11 11 11 9 7 7 8 7 8 9 8 8 7 6 6 5 3 3 2 2 2 1 1 2 3 4 4
6 8 6 5 6 4 4 3 3 1 2 5 6 2 2 3 4 6 8 9 9 11 11 10 9 8 8 8 7 7 6 5 4 3 2 1 1 1 1 1 1 3 4 4
6 8 5 5 6 4 5 4 2 2 4 1 4 2 5 4 5 6 8 8 9 9 9 9 9 8 9 8 7 6 5 5 4 4 3 3 3 2 3 2 2 3 3 3
6 4 3 5 7 4 5 3 2 3 4 2 3 3 6 2 5 8 10 11 11 10 10 10 10 9 8 8 7 6 6 5 4 4 5 4 2 2 1 1 2 2 2 2
7 5 4 6 6 4 1 5 7 7 6 2 3 4 5 5 9 9 9 10 11 10 9 8 7 6 6 6 6 6 6 5 5 4 4 4 4 3 2 2 2 1 1 1
5 7 5 3 2 3 5 7 5 6 5 4 3 3 7 6 7 10 11 10 9 8 9 9 8 7 7 7 6 6 6 5 5 5 4 4 4 4 3 3 2 2 1 1
3 7 5 4 6 5 4 10 8 4 4 4 3 2 5 4 3 5 7 8 8 8 8 9 9 9 8 8 6 6 6 5 4 4 3 3 3 2 2 2 2 2 2 2
6 7 7 5 5 8 4 4 9 8 2 1 3 3 4 2 4 4 5 7 9 9 10 9 8 8 8 8 7 7 6 5 4 4 3 3 2 2 2 2 2 1 1 1
7 4 7 4 1 3 8 7 7 6 4 1 2 2 4 3 4 4 5 7 9 9 9 9 8 7 7 7 6 6 6 5 4 4 3 3 2 2 2 2 2 2 2 2
7 4 6 3 4 7 3 4 6 5 6 7 2 6 7 9 9 9 8 8 9 10 9 8 7 7 6 6 6 6 5 5 4 4 3 3 3 3 3 3 2 2 2 3
7 6 4 7 7 7 8 8 9 6 3 5 5 8 5 9 8 9 9 9 9 8 8 8 8 7 6 6 5 5 5 4 4 4 4 4 3 4 4 3 3 3 3 4
8 7 1 7 7 2 3 4 7 7 6 5 5 6 2 5 6 8 9 10 9 9 9 8 8 7 6 6 5 5 5 4 4 5 5 5 4 4 4 3 4 4 5 5
9 6 8 9 8 3 2 3 4 7 5 4 6 6 3 6 8 7 8 10 10 9 10 9 7 6 7 6 6 6 5 5 5 6 6 5 4 4 4 4 4 5 5 5
8 5 4 5 4 2 2 4 4 5 8 8 7 8 9 10 11 11 10 10 11 10 9 10 9 7 7 7 6 5 5 5 6 7 6 5 5 5 5 6 5 5 5 6
5 5 3 0 1 2 2 4 3 3 4 6 6 4 5 8 9 11 11 12 12 12 11 10 10 9 8 7 7 5 5 5 6 7 6 6 6 6 6 6 6 6 6 6
3 5 5 1 2 4 3 4 2 2 2 7 8 8 7 10 13 15 14 12 12 12 12 12 11 10 8 7 7 7 6 6 7 7 6 6 6 6 5 6 6 6 6 6
6 5 4 2 3 3 9 5 3 2 1 2 5 7 11 12 10 9 10 12 11 11 11 11 10 9 8 8 8 7 7 7 7 7 6 6 6 6 6 6 6 5 5 5
7 8 5 4 2 3 6 3 1 3 1 0 6 8 9 10 9 4 4 8 9 10 10 9 9 9 9 9 9 9 8 7 7 7 6 6 6 7 6 6 5 5 5 6
6 7 6 4 4 5 6 6 2 7 1 3 6 10 11 9 6 4 5 8 9 8 8 9 9 9 9 8 9 10 8 7 7 6 6 6 6 7 6 6 5 5 5 6
4 4 4 4 3 6 6 6 2 5 6 3 4 8 8 6 7 7 8 8 9 9 9 10 10 9 8 9 10 9 8 7 6 7 7 7 6 6 6 5 5 5 6 6
5 4 4 5 3 7 6 4 3 5 3 2 4 6 7 7 8 10 10 10 10 9 9 9 9 8 7 8 10 9 8 7 7 8 8 7 6 6 6 6 5 5 6 6
2 6 6 6 6 5 2 2 1 3 5 3 4 5 10 10 9 10 9 10 9 9 8 8 10 9 7 7 9 10 8 8 9 8 8 7 7 5 5 6 5 5 4 5
4 2 4 3 1 2 4 5 5 5 5 5 6 7 9 10 10 10 10 8 8 7 8 8 10 9 7 7 7 8 8 9 10 9 7 7 7 6 5 4 4 4 3 4
3 3 3 3 1 4 6 5 5 6 7 8 7 6 8 10 10 10 9 9 8 7 6 7 9 9 8 8 8 8 9 10 10 9 8 7 6 6 6 5 4 3 2 2
2 1 3 3 3 2 1 2 4 5 5 6 7 6 5 8 9 8 8 8 8 8 8 8 8 8 8 8 8 7 8 9 10 9 7 6 6 5 5 5 5 7 5 5
Wind_Direction
326 68 248 243 216 209 240 263 254 238 168 131 145 162 174 173 171 175 171 173 179 183 176 168 166 162 158 157 156 160 161 171 163 162 167 169 188 199 198 200 195 190 188 180
18 267 241 244 261 264 267 280 287 299 141 122 131 161 178 178 181 174 172 176 177 172 162 166 166 164 163 164 164 164 166 172 176 177 179 178 174 188 197 208 199 201 199 195
211 244 255 259 275 276 283 226 235 250 39 61 94 38 211 194 180 177 177 176 176 175 172 171 170 172 162 163 165 168 167 167 173 171 149 122 88 58 106 187 224 226 213 204
243 250 259 256 257 226 266 252 177 109 87 332 117 169 260 193 183 188 184 176 183 185 173 172 172 175 172 168 163 161 161 166 169 159 157 163 175 192 208 202 213 234 227 213
254 248 240 245 244 225 228 224 115 103 109 58 34 119 276 169 189 207 194 183 185 182 173 175 177 175 168 162 162 163 160 168 171 170 174 171 184 199 191 186 199 223 246 236
255 266 223 226 250 233 182 48 32 46 65 39 243 146 253 216 199 194 191 188 184 178 170 166 163 154 155 159 160 163 161 171 172 176 179 181 188 181 164 170 187 209 255 267
301 294 268 229 253 324 82 79 34 9 16 262 251 150 242 236 197 181 177 179 174 167 159 155 160 158 162 165 163 165 162 170 174 178 188 194 188 173 176 179 181 181 219 259
221 277 259 212 181 185 157 132 149 176 209 278 329 216 260 244 201 159 156 158 153 151 155 162 167 168 168 167 161 162 165 169 173 177 191 189 178 167 171 174 165 173 204 226
192 250 272 236 195 157 152 162 164 135 154 34 308 303 323 37 81 118 142 146 157 164 163 163 161 161 160 158 161 162 160 156 160 167 165 160 159 152 145 144 138 131 150 160
179 249 281 269 194 181 159 152 96 109 140 208 294 265 227 207 161 153 157 165 167 164 160 160 156 158 154 154 154 144 141 152 152 153 151 135 125 121 113 97 98 94 77 66
174 195 291 342 191 199 166 130 115 122 147 147 198 263 224 186 176 169 172 168 162 162 163 156 151 150 141 141 141 137 136 136 136 135 124 113 108 103 96 93 91 84 72 73
171 146 241 260 250 199 174 176 147 147 198 153 158 261 258 177 171 157 157 155 151 152 146 140 138 133 135 139 136 133 136 138 141 133 123 115 109 102 98 91 82 78 74 69
152 130 148 329 334 335 169 174 154 137 128 144 152 256 296 145 142 146 143 146 144 142 135 130 132 135 141 136 134 137 134 137 131 124 117 108 102 100 97 89 79 77 74 67
129 124 160 192 213 221 237 234 162 129 149 186 197 208 188 158 154 150 145 149 147 143 140 139 137 141 145 140 138 137 133 131 126 116 110 107 103 101 95 87 82 79 77 72
114 139 169 197 205 165 231 257 216 174 176 174 202 188 202 180 167 159 150 147 145 147 145 144 141 142 140 133 129 130 124 122 123 115 110 108 103 96 89 83 79 76 74 72
81 128 127 324 342 45 334 298 252 208 179 168 159 201 211 154 134 143 152 155 155 156 154 147 143 146 146 141 136 132 127 124 119 117 116 110 104 96 92 86 81 77 73 70
69 105 103 242 334 45 302 259 228 213 194 161 179 202 158 142 154 162 162 163 159 157 155 153 154 154 152 149 144 142 137 126 120 117 114 110 107 102 97 96 85 80 75 75
122 97 112 109 71 209 246 248 169 160 235 169 166 167 159 158 156 154 155 155 156 157 154 153 150 146 146 142 138 136 128 124 122 119 114 111 109 105 101 98 93 87 83 80
129 123 109 110 142 265 292 304 176 144 307 271 147 143 133 115 91 81 147 146 151 154 151 151 147 144 141 140 141 131 125 122 120 121 120 119 118 115 109 105 102 97 93 85
72 99 110 118 143 214 250 292 283 109 25 309 139 138 136 120 126 194 170 140 135 134 136 137 134 132 137 141 135 129 129 126 127 127 123 120 118 118 117 112 104 99 98 95
59 67 117 142 177 252 266 301 28 127 206 256 144 140 136 143 164 158 139 131 134 134 132 131 132 137 145 140 132 131 131 132 132 124 116 112 112 112 112 106 102 103 100 93
164 149 166 145 169 248 300 20 104 193 187 124 111 123 119 117 115 123 127 127 129 127 127 130 129 129 131 134 132 131 134 133 124 118 113 110 109 112 110 106 102 103 105 98
170 183 177 172 197 234 299 118 157 139 114 98 101 115 124 121 126 128 127 129 127 130 131 129 129 124 123 128 134 134 138 132 123 117 115 110 100 93 97 104 109 106 106 106
322 4 93 86 32 19 43 56 50 69 87 92 102 110 120 125 133 130 131 130 128 130 133 131 129 129 129 127 128 133 135 130 125 122 119 113 107 97 84 82 90 104 112 118
301 4 61 78 29 25 25 39 57 63 72 79 86 100 114 122 129 135 137 138 138 133 130 132 135 137 138 134 130 133 134 131 127 126 124 118 112 110 97 84 73 98 102 147
313 118 130 192 218 153 252 2 63 72 77 89 98 94 106 123 132 133 138 139 138 137 135 133 134 136 137 136 135 138 140 139 136 135 134 132 128 123 121 115 88 54 67 83